OMD68F EGSY-VQPR

Flight info

Callsign OMD68F
Flight time N/A
Altitude 39000
Route HAWFA DCT NUCHU DCT DVR L9 KONAN UL607 KOK DCT MATUG DCT AMASI DCT BOMBI DCT TENLO DCT DEXIT DCT MAREG DCT ALAMU DCT BUDOP DCT UDROS DCT BAMUP DCT ABKEV DCT BIMVO UM859 KARDE UN644 ROLIN N644 LAGAS M747 SUBUT T923 ERLEV M11 RODAR A909 NINOP B475 DAVET P173 TAPIS L509 LAJAK G796 HANGU J139 NONIB L509 SULOM M890 LKN G598 SMR G336 KTM G348 METOM DCT SUBSU SUBSU1
Aircraft A319/M-SDE3FGHIRWY/LB1

Departure

Time 2026-04-14 20:39
Airport MOD St Athan (EGSY)

Arrival

Time N/A
Airport Paro International Airport (VQPR)
Time Latitude Longitude Altitude Speed Heading
2026-04-14 20:24 51.40647 -3.44033 170 ft 0 kts 106°
2026-04-14 20:34 51.40647 -3.44029 169 ft 1 kts 106°
2026-04-14 20:34 51.40643 -3.44016 169 ft 2 kts 116°
2026-04-14 20:35 51.40625 -3.43998 169 ft 3 kts 155°
2026-04-14 20:35 51.40611 -3.43991 170 ft 2 kts 164°
2026-04-14 20:35 51.40578 -3.43985 170 ft 5 kts 176°
2026-04-14 20:35 51.40549 -3.43981 0 ft 4 kts 175°
2026-04-14 20:36 51.40513 -3.43975 131 ft 6 kts 170°
2026-04-14 20:36 51.40461 -3.43958 169 ft 8 kts 166°
2026-04-14 20:36 51.40441 -3.43948 169 ft 0 kts 162°
2026-04-14 20:36 51.40415 -3.43951 168 ft 8 kts 202°
2026-04-14 20:37 51.40392 -3.44017 171 ft 5 kts 252°
2026-04-14 20:37 51.40375 -3.44105 174 ft 11 kts 252°
2026-04-14 20:37 51.40349 -3.44238 176 ft 15 kts 253°
2026-04-14 20:37 51.40320 -3.44398 176 ft 10 kts 257°
2026-04-14 20:38 51.40305 -3.44487 177 ft 8 kts 250°
2026-04-14 20:38 51.40271 -3.44555 176 ft 5 kts 208°
2026-04-14 20:38 51.40278 -3.44569 176 ft 3 kts 18°
2026-04-14 20:38 51.40293 -3.44532 176 ft 4 kts 71°
2026-04-14 20:39 51.40300 -3.44497 177 ft 9 kts 73°
2026-04-14 20:39 51.40414 -3.43901 167 ft 102 kts 72°
2026-04-14 20:39 51.40674 -3.42472 403 ft 147 kts 75°
2026-04-14 20:39 51.40986 -3.40858 1145 ft 156 kts 77°
2026-04-14 20:40 51.41311 -3.39134 1813 ft 166 kts 80°
2026-04-14 20:40 51.41632 -3.37237 2247 ft 187 kts 81°
2026-04-14 20:40 51.42024 -3.35109 2616 ft 213 kts 70°
2026-04-14 20:40 51.43017 -3.33149 2968 ft 240 kts 43°
2026-04-14 20:41 51.43877 -3.31953 3256 ft 255 kts 40°
2026-04-14 20:41 51.45286 -3.30022 3796 ft 277 kts 40°
2026-04-14 20:41 51.46781 -3.27980 4680 ft 285 kts 40°
2026-04-14 20:41 51.48761 -3.25130 5981 ft 291 kts 50°
2026-04-14 20:42 51.49607 -3.23389 6631 ft 294 kts 54°
2026-04-14 20:42 51.51145 -3.20000 7801 ft 300 kts 56°
2026-04-14 20:42 51.52304 -3.14774 9341 ft 301 kts 90°
2026-04-14 20:43 51.52400 -3.11430 10249 ft 306 kts 91°
2026-04-14 20:43 51.52485 -3.07874 10613 ft 330 kts 91°
2026-04-14 20:43 51.52572 -3.04127 11281 ft 341 kts 90°
2026-04-14 20:43 51.52666 -3.00294 12065 ft 347 kts 90°
2026-04-14 20:44 51.52769 -2.96376 12872 ft 353 kts 89°
2026-04-14 20:44 51.52873 -2.92406 13667 ft 359 kts 89°
2026-04-14 20:44 51.52978 -2.88374 14401 ft 364 kts 89°
2026-04-14 20:44 51.53082 -2.84291 15146 ft 368 kts 89°
2026-04-14 20:45 51.53185 -2.80173 15898 ft 371 kts 89°
2026-04-14 20:45 51.53279 -2.76302 16603 ft 373 kts 89°
2026-04-14 20:45 51.53377 -2.72117 17357 ft 376 kts 89°
2026-04-14 20:45 51.53477 -2.67848 18121 ft 380 kts 89°
2026-04-14 20:46 51.53539 -2.63651 18758 ft 383 kts 94°
2026-04-14 20:46 51.53296 -2.59378 19370 ft 385 kts 98°
2026-04-14 20:46 51.53006 -2.55081 19990 ft 389 kts 98°
2026-04-14 20:46 51.52716 -2.50733 20605 ft 393 kts 98°
2026-04-14 20:47 51.52426 -2.46343 21209 ft 397 kts 97°
2026-04-14 20:47 51.52132 -2.41911 21809 ft 402 kts 97°
2026-04-14 20:47 51.51832 -2.37432 22400 ft 406 kts 97°
2026-04-14 20:47 51.51526 -2.32896 22993 ft 410 kts 97°
2026-04-14 20:48 51.51214 -2.28326 23570 ft 415 kts 97°
2026-04-14 20:48 51.50896 -2.23698 24061 ft 419 kts 97°
2026-04-14 20:48 51.50616 -2.19690 24476 ft 422 kts 97°
2026-04-14 20:48 51.50287 -2.15008 24936 ft 426 kts 97°
2026-04-14 20:49 51.49953 -2.10265 25400 ft 430 kts 97°
2026-04-14 20:49 51.49618 -2.05464 25858 ft 434 kts 97°
2026-04-14 20:49 51.49274 -2.00560 26316 ft 438 kts 97°
2026-04-14 20:49 51.48929 -1.95682 26763 ft 442 kts 97°
2026-04-14 20:50 51.48580 -1.90770 27198 ft 445 kts 97°
2026-04-14 20:50 51.48230 -1.85877 27625 ft 449 kts 97°
2026-04-14 20:50 51.47869 -1.80890 28054 ft 453 kts 97°
2026-04-14 20:50 51.47498 -1.75859 28477 ft 456 kts 97°
2026-04-14 20:51 51.47121 -1.70783 28896 ft 460 kts 97°
2026-04-14 20:51 51.46738 -1.65673 29306 ft 463 kts 98°
2026-04-14 20:51 51.46319 -1.60533 29718 ft 467 kts 98°
2026-04-14 20:51 51.45865 -1.55358 30125 ft 470 kts 99°
2026-04-14 20:52 51.45389 -1.50155 30473 ft 473 kts 99°
2026-04-14 20:52 51.44902 -1.44913 30816 ft 476 kts 99°
2026-04-14 20:52 51.44413 -1.39641 31145 ft 479 kts 99°
2026-04-14 20:52 51.43926 -1.34344 31481 ft 482 kts 98°
2026-04-14 20:53 51.43661 -1.31450 31681 ft 483 kts 98°
2026-04-14 20:53 51.43178 -1.26111 32151 ft 482 kts 98°
2026-04-14 20:53 51.42698 -1.20796 32622 ft 482 kts 98°
2026-04-14 20:53 51.42214 -1.15487 33084 ft 481 kts 98°
2026-04-14 20:54 51.41892 -1.11964 33388 ft 481 kts 98°
2026-04-14 20:55 51.41499 -1.07409 33782 ft 477 kts 97°
2026-04-14 20:55 51.41015 -1.02120 34072 ft 480 kts 98°
2026-04-14 20:55 51.40511 -0.96848 34439 ft 481 kts 98°
2026-04-14 20:55 51.40000 -0.91568 34781 ft 481 kts 98°
2026-04-14 20:56 51.39489 -0.86256 35103 ft 482 kts 98°
2026-04-14 20:56 51.39234 -0.83272 35275 ft 482 kts 96°
2026-04-14 20:56 51.38806 -0.77951 35578 ft 484 kts 97°
2026-04-14 20:56 51.38305 -0.72610 35902 ft 485 kts 98°
2026-04-14 20:57 51.37918 -0.68727 36130 ft 485 kts 98°
2026-04-14 20:57 51.37393 -0.63386 36442 ft 486 kts 98°
2026-04-14 20:57 51.36900 -0.58302 36754 ft 487 kts 97°
2026-04-14 20:57 51.36384 -0.52958 37055 ft 487 kts 97°
2026-04-14 20:58 51.36214 -0.51211 37155 ft 488 kts 97°
2026-04-14 20:58 51.35876 -0.47815 37340 ft 486 kts 96°
2026-04-14 20:58 51.35376 -0.42551 37578 ft 488 kts 97°
2026-04-14 20:59 51.34855 -0.37189 37871 ft 489 kts 97°
2026-04-14 20:59 51.34328 -0.31890 38159 ft 489 kts 97°
2026-04-14 20:59 51.33784 -0.26513 38448 ft 490 kts 97°
2026-04-14 20:59 51.33236 -0.21138 38734 ft 490 kts 97°
2026-04-14 21:00 51.32683 -0.15751 38981 ft 491 kts 97°
2026-04-14 21:00 51.32132 -0.10372 39102 ft 491 kts 97°
2026-04-14 21:00 51.31588 -0.05045 39142 ft 491 kts 97°
2026-04-14 21:01 51.30859 0.02082 39141 ft 490 kts 97°
2026-04-14 21:01 51.30334 0.07217 39135 ft 489 kts 97°
2026-04-14 21:02 51.30265 0.07894 39133 ft 489 kts 97°
2026-04-14 21:02 51.29657 0.13802 39139 ft 489 kts 97°
2026-04-14 21:03 51.28548 0.24412 39150 ft 489 kts 97°
2026-04-14 21:03 51.27982 0.29773 38949 ft 489 kts 97°
2026-04-14 21:03 51.27413 0.35134 38933 ft 489 kts 97°
2026-04-14 21:04 51.26266 0.45862 38923 ft 490 kts 97°
2026-04-14 21:04 51.25112 0.56571 38951 ft 490 kts 97°
2026-04-14 21:05 51.23967 0.67225 39006 ft 489 kts 97°
2026-04-14 21:05 51.22810 0.77814 39064 ft 488 kts 97°
2026-04-14 21:06 51.21630 0.88475 39187 ft 488 kts 97°
2026-04-14 21:06 51.20446 0.99053 39189 ft 487 kts 97°
2026-04-14 21:07 51.19252 1.09676 39190 ft 486 kts 97°
2026-04-14 21:07 51.18048 1.20283 39192 ft 486 kts 97°
2026-04-14 21:08 51.16834 1.30857 39197 ft 485 kts 97°
2026-04-14 21:08 51.15987 1.41466 39198 ft 480 kts 89°
2026-04-14 21:09 51.15498 1.52067 39199 ft 480 kts 90°
2026-04-14 21:09 51.14985 1.62650 39205 ft 479 kts 90°
2026-04-14 21:10 51.14458 1.73216 39208 ft 478 kts 90°
2026-04-14 21:10 51.13922 1.83761 39208 ft 478 kts 90°
2026-04-14 21:11 51.13371 1.94296 39205 ft 477 kts 90°
2026-04-14 21:11 51.12815 2.04811 39210 ft 476 kts 90°
2026-04-14 21:12 51.12260 2.15319 39208 ft 476 kts 90°
2026-04-14 21:12 51.11694 2.25811 39217 ft 475 kts 90°
2026-04-14 21:13 51.11119 2.36273 39217 ft 474 kts 90°
2026-04-14 21:13 51.10534 2.46708 39232 ft 473 kts 90°
2026-04-14 21:14 51.09632 2.62313 39240 ft 472 kts 90°
2026-04-14 21:14 51.08258 2.72587 39239 ft 477 kts 100°
2026-04-14 21:15 51.06573 2.82773 39241 ft 476 kts 100°
2026-04-14 21:15 51.04886 2.92937 39242 ft 475 kts 100°
2026-04-14 21:16 51.03190 3.03065 39245 ft 474 kts 100°
2026-04-14 21:16 51.01487 3.13160 39246 ft 473 kts 100°
2026-04-14 21:17 50.99778 3.23247 39239 ft 472 kts 100°
2026-04-14 21:17 50.98073 3.33291 39244 ft 471 kts 100°
2026-04-14 21:18 50.96357 3.43311 39245 ft 470 kts 100°
2026-04-14 21:18 50.94642 3.53299 39246 ft 469 kts 100°
2026-04-14 21:19 50.93489 3.59971 39243 ft 469 kts 100°
2026-04-14 21:19 50.91415 3.71865 39252 ft 468 kts 100°
2026-04-14 21:20 50.89674 3.81798 39251 ft 467 kts 100°
2026-04-14 21:20 50.87930 3.91712 39251 ft 466 kts 100°
2026-04-14 21:21 50.86205 4.01486 39256 ft 465 kts 100°
2026-04-14 21:21 50.84846 4.09147 39260 ft 464 kts 101°
2026-04-14 21:22 50.83213 4.18249 39265 ft 463 kts 101°
2026-04-14 21:22 50.81460 4.28040 39266 ft 462 kts 101°
2026-04-14 21:23 50.79702 4.37801 39268 ft 461 kts 101°
2026-04-14 21:23 50.77936 4.47544 39263 ft 460 kts 101°
2026-04-14 21:24 50.76168 4.57254 39266 ft 460 kts 101°
2026-04-14 21:24 50.74389 4.66949 39260 ft 460 kts 101°
2026-04-14 21:25 50.72599 4.76639 39258 ft 459 kts 101°
2026-04-14 21:25 50.70803 4.86315 39261 ft 459 kts 101°
2026-04-14 21:26 50.69006 4.95960 39261 ft 459 kts 101°
2026-04-14 21:26 50.67202 5.05619 39266 ft 459 kts 101°
2026-04-14 21:27 50.65394 5.15252 39266 ft 459 kts 101°
2026-04-14 21:27 50.63565 5.24887 39267 ft 458 kts 101°
2026-04-14 21:28 50.61737 5.34505 39265 ft 458 kts 101°
2026-04-14 21:28 50.59906 5.44111 39267 ft 458 kts 101°
2026-04-14 21:29 50.58060 5.53696 39269 ft 458 kts 101°
2026-04-14 21:29 50.56206 5.63277 39265 ft 458 kts 101°
2026-04-14 21:30 50.54353 5.72850 39270 ft 457 kts 101°
2026-04-14 21:30 50.52488 5.82405 39275 ft 457 kts 101°
2026-04-14 21:31 50.50615 5.91951 39275 ft 457 kts 101°
2026-04-14 21:31 50.48733 6.01501 39274 ft 457 kts 101°
2026-04-14 21:32 50.46851 6.11016 39278 ft 457 kts 101°
2026-04-14 21:32 50.44955 6.20532 39275 ft 457 kts 101°
2026-04-14 21:33 50.43056 6.30035 39277 ft 456 kts 102°
2026-04-14 21:33 50.41306 6.39562 39272 ft 452 kts 96°
2026-04-14 21:34 50.39989 6.49184 39273 ft 452 kts 96°
2026-04-14 21:34 50.38658 6.58806 39274 ft 452 kts 96°
2026-04-14 21:35 50.37354 6.68183 39271 ft 451 kts 96°
2026-04-14 21:35 50.36010 6.77786 39273 ft 451 kts 96°
2026-04-14 21:36 50.34661 6.87319 39272 ft 451 kts 96°
2026-04-14 21:36 50.33283 6.96963 39271 ft 451 kts 96°
2026-04-14 21:37 50.31917 7.06536 39270 ft 451 kts 97°
2026-04-14 21:37 50.30543 7.16103 39276 ft 450 kts 97°
2026-04-14 21:38 50.29156 7.25656 39273 ft 450 kts 97°
2026-04-14 21:38 50.27778 7.35127 39277 ft 450 kts 97°
2026-04-14 21:39 50.26380 7.44714 39279 ft 449 kts 97°
2026-04-14 21:39 50.24975 7.54222 39278 ft 449 kts 97°
2026-04-14 21:40 50.23558 7.63726 39282 ft 449 kts 97°
2026-04-14 21:40 50.22147 7.73220 39282 ft 449 kts 97°
2026-04-14 21:41 50.20729 7.82706 39283 ft 448 kts 98°
2026-04-14 21:41 50.19318 7.92121 39284 ft 448 kts 98°
2026-04-14 21:42 50.17884 8.01591 39284 ft 449 kts 98°
2026-04-14 21:42 50.16444 8.11010 39283 ft 448 kts 98°
2026-04-14 21:43 50.14996 8.20473 39284 ft 449 kts 98°
2026-04-14 21:43 50.13538 8.29937 39282 ft 449 kts 99°
2026-04-14 21:44 50.12067 8.39376 39281 ft 449 kts 99°
2026-04-14 21:44 50.10593 8.48834 39290 ft 449 kts 99°
2026-04-14 21:45 50.09114 8.58292 39290 ft 449 kts 99°
2026-04-14 21:45 50.07626 8.67731 39289 ft 449 kts 99°
2026-04-14 21:46 50.06123 8.77170 39288 ft 449 kts 100°
2026-04-14 21:46 50.04216 8.86469 39283 ft 452 kts 105°
2026-04-14 21:47 50.02127 8.95688 39279 ft 452 kts 105°
2026-04-14 21:47 50.00046 9.04897 39280 ft 452 kts 106°
2026-04-14 21:48 49.97959 9.14101 39276 ft 451 kts 106°
2026-04-14 21:48 49.95865 9.23284 39270 ft 451 kts 106°
2026-04-14 21:49 49.93765 9.32458 39271 ft 451 kts 106°
2026-04-14 21:49 49.91654 9.41619 39277 ft 451 kts 106°
2026-04-14 21:50 49.89536 9.50762 39271 ft 450 kts 106°
2026-04-14 21:50 49.87415 9.59893 39272 ft 450 kts 107°
2026-04-14 21:51 49.85284 9.69022 39274 ft 450 kts 107°
2026-04-14 21:51 49.83148 9.78144 39277 ft 450 kts 107°
2026-04-14 21:52 49.81002 9.87268 39279 ft 451 kts 107°
2026-04-14 21:52 49.78846 9.96383 39276 ft 451 kts 107°
2026-04-14 21:53 49.76674 10.05491 39283 ft 452 kts 107°
2026-04-14 21:53 49.74495 10.14605 39282 ft 452 kts 107°
2026-04-14 21:54 49.72317 10.23721 39289 ft 452 kts 107°
2026-04-14 21:54 49.70140 10.32845 39291 ft 452 kts 107°
2026-04-14 21:55 49.67945 10.41957 39286 ft 452 kts 108°
2026-04-14 21:55 49.65735 10.51051 39292 ft 452 kts 108°
2026-04-14 21:56 49.63896 10.58589 39297 ft 452 kts 108°
2026-04-14 21:56 49.61682 10.67661 39290 ft 452 kts 108°
2026-04-14 21:57 49.59468 10.76724 39301 ft 451 kts 108°
2026-04-14 21:57 49.57240 10.85768 39299 ft 451 kts 108°
2026-04-14 21:58 49.55007 10.94794 39294 ft 451 kts 108°
2026-04-14 21:58 49.52769 11.03803 39288 ft 450 kts 109°
2026-04-14 21:59 49.50437 11.12747 39292 ft 450 kts 110°
2026-04-14 21:59 49.47982 11.21626 39302 ft 450 kts 111°
2026-04-14 22:00 49.45517 11.30476 39297 ft 450 kts 111°
2026-04-14 22:00 49.43076 11.39337 39300 ft 450 kts 111°
2026-04-14 22:01 49.40668 11.48127 39294 ft 449 kts 111°
2026-04-14 22:01 49.38237 11.56971 39284 ft 449 kts 111°
2026-04-14 22:02 49.35794 11.65787 39275 ft 449 kts 111°
2026-04-14 22:02 49.33341 11.74592 39274 ft 449 kts 111°
2026-04-14 22:03 49.30868 11.83430 39276 ft 448 kts 111°
2026-04-14 22:03 49.28410 11.92190 39247 ft 447 kts 112°
2026-04-14 22:04 49.25963 12.00874 39248 ft 447 kts 112°
2026-04-14 22:04 49.23501 12.09595 39248 ft 446 kts 112°
2026-04-14 22:05 49.21033 12.18301 39245 ft 446 kts 112°
2026-04-14 22:05 49.18561 12.26998 39247 ft 445 kts 112°
2026-04-14 22:06 49.16081 12.35661 39245 ft 445 kts 112°
2026-04-14 22:06 49.13593 12.44333 39251 ft 445 kts 112°
2026-04-14 22:07 49.11107 12.52989 39245 ft 445 kts 112°
2026-04-14 22:07 49.08609 12.61637 39245 ft 445 kts 112°
2026-04-14 22:08 49.06106 12.70275 39244 ft 445 kts 113°
2026-04-14 22:08 49.03604 12.78893 39253 ft 445 kts 113°
2026-04-14 22:09 49.01088 12.87513 39249 ft 445 kts 113°
2026-04-14 22:09 48.98563 12.96122 39253 ft 445 kts 113°
2026-04-14 22:10 48.96042 13.04712 39248 ft 444 kts 113°
2026-04-14 22:10 48.93514 13.13276 39250 ft 444 kts 114°
2026-04-14 22:11 48.90981 13.21823 39250 ft 443 kts 114°
2026-04-14 22:11 48.88445 13.30349 39251 ft 442 kts 114°
2026-04-14 22:12 48.85910 13.38858 39249 ft 442 kts 114°
2026-04-14 22:12 48.83377 13.47344 39252 ft 441 kts 114°
2026-04-14 22:13 48.80839 13.55810 39250 ft 441 kts 114°
2026-04-14 22:13 48.78291 13.64263 39252 ft 440 kts 115°
2026-04-14 22:14 48.75967 13.72833 39248 ft 440 kts 104°
2026-04-14 22:14 48.74529 13.81835 39248 ft 440 kts 103°
2026-04-14 22:15 48.73090 13.90844 39248 ft 440 kts 104°
2026-04-14 22:15 48.71632 13.99847 39246 ft 440 kts 104°
2026-04-14 22:16 48.70159 14.08846 39244 ft 441 kts 104°
2026-04-14 22:16 48.68681 14.17856 39241 ft 441 kts 104°
2026-04-14 22:17 48.67196 14.26864 39241 ft 441 kts 104°
2026-04-14 22:17 48.65710 14.35869 39245 ft 441 kts 104°
2026-04-14 22:18 48.64213 14.44870 39244 ft 441 kts 105°
2026-04-14 22:18 48.62707 14.53849 39251 ft 440 kts 105°
2026-04-14 22:19 48.60446 14.67294 39250 ft 440 kts 105°
2026-04-14 22:20 48.58931 14.76244 39247 ft 440 kts 105°
2026-04-14 22:20 48.57413 14.85128 39245 ft 439 kts 105°
2026-04-14 22:21 48.55888 14.94051 39243 ft 438 kts 105°
2026-04-14 22:21 48.54388 15.02784 39241 ft 438 kts 105°
2026-04-14 22:22 48.52860 15.11674 39239 ft 438 kts 105°
2026-04-14 22:22 48.51313 15.20555 39237 ft 437 kts 105°
2026-04-14 22:23 48.49756 15.29419 39234 ft 437 kts 105°
2026-04-14 22:23 48.48203 15.38276 39236 ft 437 kts 105°
2026-04-14 22:24 48.46648 15.47106 39234 ft 436 kts 106°
2026-04-14 22:24 48.45081 15.55937 39231 ft 436 kts 106°
2026-04-14 22:25 48.43517 15.64742 39228 ft 435 kts 106°
2026-04-14 22:25 48.41940 15.73541 39226 ft 435 kts 106°
2026-04-14 22:26 48.40357 15.82322 39224 ft 435 kts 106°
2026-04-14 22:26 48.38776 15.91097 39224 ft 435 kts 106°
2026-04-14 22:27 48.37188 15.99876 39221 ft 435 kts 106°
2026-04-14 22:27 48.35586 16.08636 39219 ft 435 kts 107°
2026-04-14 22:28 48.33970 16.17399 39221 ft 435 kts 107°
2026-04-14 22:28 48.32361 16.26150 39218 ft 434 kts 107°
2026-04-14 22:29 48.30745 16.34898 39222 ft 434 kts 107°
2026-04-14 22:29 48.29119 16.43637 39223 ft 434 kts 107°
2026-04-14 22:30 48.27489 16.52377 39222 ft 434 kts 107°
2026-04-14 22:30 48.25847 16.61104 39224 ft 434 kts 107°
2026-04-14 22:31 48.24205 16.69819 39224 ft 434 kts 107°
2026-04-14 22:31 48.22553 16.78526 39224 ft 434 kts 107°
2026-04-14 22:32 48.20895 16.87214 39219 ft 434 kts 107°
2026-04-14 22:32 48.19229 16.95844 39201 ft 433 kts 111°
2026-04-14 22:33 48.16726 17.04072 39201 ft 432 kts 117°
2026-04-14 22:33 48.14099 17.12092 39202 ft 432 kts 117°
2026-04-14 22:34 48.11459 17.20159 39206 ft 431 kts 117°
2026-04-14 22:34 48.08818 17.28220 39202 ft 431 kts 117°
2026-04-14 22:35 48.06164 17.36320 39202 ft 431 kts 117°
2026-04-14 22:35 48.03532 17.44294 39200 ft 430 kts 118°
2026-04-14 22:36 48.00874 17.52294 39198 ft 430 kts 118°
2026-04-14 22:36 47.98213 17.60299 39197 ft 430 kts 118°
2026-04-14 22:37 47.95555 17.68292 39197 ft 430 kts 118°
2026-04-14 22:37 47.92887 17.76287 39197 ft 430 kts 118°
2026-04-14 22:38 47.90207 17.84268 39200 ft 431 kts 118°
2026-04-14 22:38 47.87524 17.92244 39200 ft 431 kts 118°
2026-04-14 22:39 47.85275 17.98917 39200 ft 430 kts 118°
2026-04-14 22:39 47.82584 18.06872 39202 ft 430 kts 118°
2026-04-14 22:40 47.79889 18.14821 39198 ft 430 kts 118°
2026-04-14 22:40 47.77181 18.22760 39200 ft 430 kts 118°
2026-04-14 22:41 47.74472 18.30695 39201 ft 430 kts 118°
2026-04-14 22:41 47.71819 18.38664 39203 ft 431 kts 116°
2026-04-14 22:42 47.69327 18.46745 39202 ft 431 kts 115°
2026-04-14 22:42 47.66855 18.54840 39202 ft 430 kts 116°
2026-04-14 22:43 47.64360 18.62843 39202 ft 430 kts 116°
2026-04-14 22:43 47.61822 18.70866 39201 ft 430 kts 116°
2026-04-14 22:44 47.59263 18.78931 39197 ft 430 kts 117°
2026-04-14 22:44 47.56741 18.86879 39195 ft 429 kts 117°
2026-04-14 22:45 47.54196 18.94871 39189 ft 429 kts 117°
2026-04-14 22:45 47.51626 19.02909 39191 ft 429 kts 117°
2026-04-14 22:46 47.49067 19.10884 39188 ft 429 kts 117°
2026-04-14 22:46 47.46506 19.18848 39189 ft 429 kts 117°
2026-04-14 22:47 47.43952 19.26755 39186 ft 429 kts 117°
2026-04-14 22:47 47.41383 19.34701 39188 ft 429 kts 117°